sat.trackr.live / text

‹ back to catalog

STARLINK-31632

NORAD 59326 · 2024-057G

PAYLOAD ACTIVE UNKNOWN

§ Identity

Operator
Country
US
Launch date
2024-03-25
Launch site
AFETR
Launch vehicle
Mass (kg)
RCS (m²)

Purposes: comms

External: N2YO · Heavens-Above · Gunter

§ Orbital elements

Epoch: 2026-09-20T01:09:15.332832Z

Period
94.27 min
Inclination
42.9980°
Eccentricity
0.0000831
Mean motion
15.27590802 rev/d
Perigee alt
482.4 km
Apogee alt
483.6 km
Semi-major
6,861.2 km
B*
5.8071e-4
RAAN
180.6901°
Arg perigee
280.2135°
Mean anomaly
79.8623°
Rev number
13,943

§ Raw data

STARLINK-316321 59326U 24057G   26263.04809413  .00015757  00000+0  58071-3 0  99992 59326  42.9980 180.6901 0000831 280.2135  79.8623 15.27590802139431

JSON: /api/v1/satellites/59326 · /tle

For live sub-satellite position, see the globe view (requires WebGL).

§ Visibility from observer

Set your observer location to see the next 7 days of passes ≥ 10°. The values pass through the URL so the page stays shareable.

No JS? Fill the form by hand. The geolocation button needs JavaScript.